User: anonymous   Login
Location: Caltech
(34.1382°N, 118.1253°W)
Time: 16:02:02
(UTC-08:00)
Language:

Iridium 70 - Orbit

View from above orbital plane
View from above orbital plane
View from above satellite
View from above satellite

Ground track
Ground track

The orbit data is extracted from the following two-line orbital elements,

1 25342U 98032A   14325.83089767  .00000567  00000-0  19528-3 0   538
2 25342 086.3976 256.3913 0002142 104.4813 307.8222 14.34214573864608
Epoch (UTC): 21 November 2014 19:56:29
Eccentricity: 0.0002142
inclination: 86.3976°
perigee height: 776 km
apogee height: 779 km
right ascension of ascending node: 256.3913°
argument of perigee: 104.4813°
revolutions per day: 14.34214573
mean anomaly at epoch: 307.8222°
orbit number at epoch: 86460

The dashed part of the orbit path shows where the satellite is in the earth's shadow,  

DLR